Regional Weather Roundup
Issued by NWS

Home | Current Version | Previous Version | Text Only | Print | Product List | Glossary Off
Versions: 1 2 3 4 5 6 7 8 9 10 11 12 13 14 15 16 17 18 19 20 21 22 23 24 25 26 27 28 29 30 31 32 33 34 35 36 37 38 39 40 41 42 43 44 45 46 47 48 49 50

000
ASUS43 KDTX 250001
RWRMI
MICHIGAN HOURLY REGIONAL WEATHER ROUNDUP
NATIONAL WEATHER SERVICE DETROIT/PONTIAC MI
800 PM EDT TUE APR 24 2018

NOTE: "FAIR" INDICATES FEW OR NO CLOUDS BELOW 12,000 FEET WITH NO
SIGNIFICANT WEATHER AND/OR OBSTRUCTION TO VISIBILITY.

MIZ047>049-052>055-059>063-066>070-074>076-081>083-250100-
SOUTHEAST LOWER MICHIGAN

CITY           SKY/WX    TMP DP  RH WIND       PRES   REMARKS
ADRIAN         LGT RAIN  50  50 100 E6        29.98S FOG
6HR MIN TEMP:  50; 6HR MAX TEMP:  53; 6HR PCP:  0.06;

ALMA           LGT RAIN  55  52  88 N7        30.00F
6HR MIN TEMP:  55; 6HR MAX TEMP:  60;

ANN ARBOR      CLOUDY    52  51  97 NE6       29.98S FOG
BAD AXE        CLOUDY    59  40  49 E8        30.02S
6HR MIN TEMP:  59; 6HR MAX TEMP:  67;

CARO           LGT RAIN  56  47  73 CALM      29.99S
DETROIT CITY   CLOUDY    50  48  93 E9        30.00F FOG
6HR MIN TEMP:  50; 6HR MAX TEMP:  58; 6HR PCP:  0.04;

DETROIT        LGT RAIN  52  49  89 E8        29.99S FOG
6HR MIN TEMP:  52; 6HR MAX TEMP:  55; 6HR PCP:  0.18;

FLINT          CLOUDY    55  49  80 S12       29.99S
6HR MIN TEMP:  55; 6HR MAX TEMP:  66;

GROSSE ILE     LGT RAIN  51  49  96 E6        29.98S
6HR MIN TEMP:  51; 6HR MAX TEMP:  54; 6HR PCP:  0.20;

HILLSDALE      CLOUDY    50  46  87 E5        29.97S FOG
HOWELL         DRIZZLE   54  51  92 E3        29.98F
6HR MIN TEMP:  53; 6HR MAX TEMP:  62;


CITY           SKY/WX    TMP DP  RH WIND       PRES   REMARKS
JACKSON        CLOUDY    52  51  97 E7        29.98F FOG
6HR MIN TEMP:  52; 6HR MAX TEMP:  57; 6HR PCP:  0.01;

LAMBERTVILLE   LGT RAIN  50  47  90 NE5       29.98R
6HR MIN TEMP:  50; 6HR MAX TEMP:  53;

LANSING        CLOUDY    54  53  97 NE5       29.99F FOG
6HR MIN TEMP:  54; 6HR MAX TEMP:  63;

LAPEER         CLOUDY    54  45  73 S7        30.00S
6HR MIN TEMP:  54; 6HR MAX TEMP:  65;

MASON          CLOUDY    55  50  83 SE3       29.98F
6HR MIN TEMP:  55; 6HR MAX TEMP:  62;

MONROE         RAIN      51  49  93 E6        29.97S
6HR MIN TEMP:  50; 6HR MAX TEMP:  53; 6HR PCP:  0.16;

MT. CLEMENS    LGT RAIN  50  50 100 E6        29.99F FOG
PONTIAC        CLOUDY    53  48  83 E7        29.98F
6HR MIN TEMP:  52; 6HR MAX TEMP:  62; 6HR PCP: TRACE;

PORT HOPE        N/A     48  44  86 E10       30.01F
6HR MIN TEMP:  46; 6HR MAX TEMP:  52;

PORT HURON     LGT RAIN  52  48  87 E5        30.02S
TRI CITIES     LGT RAIN  54  48  80 NE10      30.01R
6HR MIN TEMP:  54; 6HR MAX TEMP:  64; 6HR PCP: TRACE;

MIDLAND        RAIN      54  51  90 N6        30.00S
6HR MIN TEMP:  54; 6HR MAX TEMP:  62;

TROY           DRIZZLE   52  50  91 E7        30.01F
SAGINAW HB     LGT RAIN  52  46  82 N7        29.99F
$$
MIZ043>046-050>051-056>058-064>065-071>073-077>080-250100-
SOUTHWEST LOWER MICHIGAN

CITY           SKY/WX    TMP DP  RH WIND       PRES   REMARKS
BATTLE CREEK   CLOUDY    54  53  97 N7        29.98S FOG
6HR MIN TEMP:  54; 6HR MAX TEMP:  59; 6HR PCP: TRACE;

BENTON HARBOR  CLOUDY    51  45  79 VRB5      29.99R
6HR MIN TEMP:  51; 6HR MAX TEMP:  60;

BIG RAPIDS     CLOUDY    53  49  88 NW3       30.01R
6HR MIN TEMP:  53; 6HR MAX TEMP:  57; 6HR PCP:  0.03;

COLDWATER      CLOUDY    53  53 100 E6        29.97S
6HR MIN TEMP:  53; 6HR MAX TEMP:  55;

HOLLAND        CLOUDY    61  48  62 N5        29.99R
6HR MIN TEMP:  59; 6HR MAX TEMP:  64;

GRAND RAPIDS   LGT RAIN  55  52  89 NE8       29.99S FOG
6HR MIN TEMP:  55; 6HR MAX TEMP:  62; 6HR PCP: TRACE;

IONIA          RAIN      55  53  91 N5        29.99S
6HR MIN TEMP:  55; 6HR MAX TEMP:  60;

KALAMAZOO      CLOUDY    58  50  75 NE8       29.98S
6HR MIN TEMP:  58; 6HR MAX TEMP:  62;

LUDINGTON      FAIR      54  41  60 N6        30.02S
6HR MIN TEMP:  54; 6HR MAX TEMP:  61;

MARSHALL       CLOUDY    53  52  98 E6        29.97S FOG
6HR MIN TEMP:  53; 6HR MAX TEMP:  57;

MOUNT PLEASANT HVY RAIN  55  54  96 N6        30.01R
6HR MIN TEMP:  55; 6HR MAX TEMP:  59; 6HR PCP:  0.03;

MUSKEGON       CLOUDY    60  50  69 N5        30.00S
6HR MIN TEMP:  58; 6HR MAX TEMP:  64; 6HR PCP: TRACE;

SOUTH HAVEN    CLOUDY    53  46  76 N13       29.98S
$$
MIZ016>042-250100-
NORTHERN LOWER MICHIGAN

CITY           SKY/WX    TMP DP  RH WIND       PRES   REMARKS
ALPENA         LGT RAIN  51  51 100 CALM      30.03F VSB 1/4
6HR MIN TEMP:  51; 6HR MAX TEMP:  59; 6HR PCP:  0.03;

BEAVER ISLAND  CLOUDY    49  28  43 N9G16     30.08R
6HR MIN TEMP:  49; 6HR MAX TEMP:  61;

BELLAIRE       CLOUDY    53  31  42 N6        30.04R
6HR MIN TEMP:  53; 6HR MAX TEMP:  66;

CADILLAC       CLOUDY    54  50  87 CALM      30.02S
CHARLEVOIX     FAIR      43  32  65 N10G17    30.08R
6HR MIN TEMP:  42; 6HR MAX TEMP:  58;

FRANKFORT      CLOUDY    52  34  50 NE7       30.04S
GAYLORD        LGT RAIN  50  40  68 NW5       30.03S
6HR MIN TEMP:  50; 6HR MAX TEMP:  56; 6HR PCP: TRACE;

HARBOR SPRINGS CLOUDY    51  29  42 N14G20    30.03S
HOUGHTON LAKE  LGT RAIN  52  51  97 NE5       30.02F
6HR MIN TEMP:  52; 6HR MAX TEMP:  57; 6HR PCP:  0.14;

MANISTEE       CLOUDY    56  34  43 N5        30.02S
OSCODA         LGT RAIN  52  49  91 CALM      30.02S
6HR MIN TEMP:  52; 6HR MAX TEMP:  58;

PELLSTON       MOCLDY    52  32  46 N12       30.06R
6HR MIN TEMP:  52; 6HR MAX TEMP:  67;

ROGERS CITY    LGT RAIN  44  41  88 CALM      30.05R
TRAVERSE CITY  CLOUDY    48  33  56 N5        30.04R
6HR MIN TEMP:  48; 6HR MAX TEMP:  65;

$$
MIZ007>008-015-250100-
EASTERN UPPER MICHIGAN

CITY           SKY/WX    TMP DP  RH WIND       PRES   REMARKS
KINROSS        CLOUDY    43  30  60 NW13      30.05F
6HR MIN TEMP:  43; 6HR MAX TEMP:  63;

MACKINAC ISLAN CLOUDY    47  30  52 N14G20    30.05R
6HR MIN TEMP:  47; 6HR MAX TEMP:  60;

NEWBERRY       CLOUDY    42  27  55 N9        30.09S
6HR MIN TEMP:  42; 6HR MAX TEMP:  58;

S. S. MARIE    CLOUDY    46  30  53 NW12      30.05S
6HR MIN TEMP:  44; 6HR MAX TEMP:  64;

MUNISING         N/A     37  32  82 N3        30.14S
6HR MIN TEMP:  36; 6HR MAX TEMP:  41;

$$
MIZ004>006-011>014-085-250100-
CENTRAL UPPER MICHIGAN

CITY           SKY/WX    TMP DP  RH WIND       PRES   REMARKS
MANISTIQUE     MOCLDY    47  23  39 N17G25    30.08S
6HR MIN TEMP:  47; 6HR MAX TEMP:  60;

ESCANABA       FAIR      48  25  40 N8        30.11R
6HR MIN TEMP:  48; 6HR MAX TEMP:  60;

MENOMINEE      CLOUDY    50  30  46 E14       30.08S
6HR MIN TEMP:  50; 6HR MAX TEMP:  61;

SAWYER-GWINN   MOCLDY    41  27  56 N13       30.13F
$$
MIZ001>003-009>011-084-250100-
WESTERN UPPER MICHIGAN

CITY           SKY/WX    TMP DP  RH WIND       PRES   REMARKS
IRON MOUNTAIN  CLOUDY    52  28  39 NE9       30.10R
6HR MIN TEMP:  52; 6HR MAX TEMP:  67;

HOUGHTON       FAIR      44  30  57 NW8       30.15S
6HR MIN TEMP:  41; 6HR MAX TEMP:  48; 6HR PCP: TRACE;

COPPER HARBOR    N/A     39  30  70 N8        30.15S WCI  33
6HR MIN TEMP:  39; 6HR MAX TEMP:  46;

IRONWOOD       FAIR      44  36  73 CALM      30.18S
6HR MIN TEMP:  39; 6HR MAX TEMP:  46; 6HR PCP:  0.03;

$$

ABBREVIATIONS USED IN REMARKS
   TC - TEMPERATURE IN CELSIUS
  WCI - WIND CHILL INDEX
   HX - HEAT INDEX
  VSB - VISIBILITY





USA.gov is the U.S. government's official web portal to all federal, state and local government web resources and services.